QTR936W RPLC-RPMD

Flight info

Callsign QTR936W
Flight time 1h 40m
Altitude 41000
Route OLIVA3F OLIVA W16 MIA B462 MASBA W9A BN W9 RIMAR RIMAR2R
Aircraft B748/H-SDE3FGHIM1M2RWXY/LB1

Departure

Time 2026-04-29 11:02
Airport Clark International Airport / Clark Air Base (RPLC)

Arrival

Time 2026-04-29 12:42
Airport Francisco Bangoy International Airport (RPMD)
Time Latitude Longitude Altitude Speed Heading
2026-04-29 10:29 15.19518 120.56219 498 ft 0 kts 24°
2026-04-29 10:51 15.19513 120.56217 497 ft 2 kts 24°
2026-04-29 10:52 15.19498 120.56210 497 ft 2 kts 24°
2026-04-29 10:52 15.19484 120.56203 497 ft 2 kts 25°
2026-04-29 10:52 15.19469 120.56196 497 ft 2 kts 32°
2026-04-29 10:52 15.19458 120.56185 497 ft 2 kts 60°
2026-04-29 10:53 15.19453 120.56169 497 ft 2 kts 91°
2026-04-29 10:53 15.19454 120.56158 497 ft 1 kts 107°
2026-04-29 10:53 15.19455 120.56156 497 ft 0 kts 108°
2026-04-29 10:57 15.19455 120.56157 497 ft 2 kts 108°
2026-04-29 10:57 15.19441 120.56209 497 ft 11 kts 103°
2026-04-29 10:58 15.19482 120.56296 497 ft 19 kts 27°
2026-04-29 10:58 15.19604 120.56343 497 ft 19 kts 21°
2026-04-29 10:58 15.19740 120.56397 497 ft 23 kts 21°
2026-04-29 10:58 15.19900 120.56461 497 ft 22 kts 21°
2026-04-29 10:59 15.20019 120.56509 497 ft 17 kts 21°
2026-04-29 10:59 15.20101 120.56545 497 ft 8 kts 39°
2026-04-29 10:59 15.20121 120.56574 497 ft 3 kts 66°
2026-04-29 10:59 15.20127 120.56595 497 ft 4 kts 72°
2026-04-29 11:00 15.20141 120.56643 497 ft 10 kts 75°
2026-04-29 11:00 15.20157 120.56731 497 ft 13 kts 89°
2026-04-29 11:00 15.20124 120.56822 497 ft 13 kts 145°
2026-04-29 11:00 15.20065 120.56824 497 ft 5 kts 198°
2026-04-29 11:01 15.20046 120.56817 497 ft 3 kts 199°
2026-04-29 11:01 15.20042 120.56816 497 ft 1 kts 199°
2026-04-29 11:01 15.19901 120.56764 497 ft 59 kts 199°
2026-04-29 11:01 15.19235 120.56506 498 ft 145 kts 201°
2026-04-29 11:02 15.18043 120.56042 761 ft 200 kts 200°
2026-04-29 11:02 15.16772 120.55578 2061 ft 191 kts 199°
2026-04-29 11:02 15.15478 120.55106 2960 ft 206 kts 199°
2026-04-29 11:02 15.14051 120.54583 3486 ft 222 kts 199°
2026-04-29 11:03 15.12570 120.54040 3860 ft 231 kts 199°
2026-04-29 11:03 15.11019 120.53503 4259 ft 238 kts 193°
2026-04-29 11:03 15.09362 120.53557 4673 ft 243 kts 164°
2026-04-29 11:03 15.07830 120.54307 5023 ft 252 kts 152°
2026-04-29 11:04 15.06314 120.55247 5353 ft 261 kts 149°
2026-04-29 11:04 15.04673 120.56321 5686 ft 272 kts 148°
2026-04-29 11:04 15.03048 120.57405 6003 ft 285 kts 148°
2026-04-29 11:04 15.01327 120.58571 6336 ft 310 kts 148°
2026-04-29 11:05 14.99420 120.59952 6702 ft 339 kts 142°
2026-04-29 11:05 14.97712 120.61839 7054 ft 357 kts 131°
2026-04-29 11:05 14.96169 120.63896 7381 ft 365 kts 129°
2026-04-29 11:05 14.94644 120.66018 7708 ft 369 kts 128°
2026-04-29 11:06 14.93094 120.68177 8037 ft 373 kts 128°
2026-04-29 11:06 14.91519 120.70370 8368 ft 375 kts 128°
2026-04-29 11:06 14.89959 120.72542 8695 ft 376 kts 128°
2026-04-29 11:06 14.88403 120.74708 9019 ft 378 kts 128°
2026-04-29 11:07 14.86823 120.76907 9346 ft 380 kts 128°
2026-04-29 11:07 14.85244 120.79104 9672 ft 382 kts 128°
2026-04-29 11:07 14.83649 120.81324 10000 ft 383 kts 128°
2026-04-29 11:07 14.82077 120.83512 10322 ft 385 kts 128°
2026-04-29 11:08 14.80901 120.85147 10561 ft 387 kts 128°
2026-04-29 11:08 14.79297 120.87380 10886 ft 388 kts 129°
2026-04-29 11:08 14.77440 120.89450 11209 ft 388 kts 141°
2026-04-29 11:08 14.75282 120.91147 11541 ft 387 kts 147°
2026-04-29 11:09 14.73061 120.92733 11867 ft 388 kts 148°
2026-04-29 11:09 14.70833 120.94290 12191 ft 390 kts 148°
2026-04-29 11:09 14.68547 120.95889 12533 ft 407 kts 148°
2026-04-29 11:09 14.66153 120.97578 12911 ft 423 kts 146°
2026-04-29 11:10 14.63920 120.99677 13293 ft 430 kts 135°
2026-04-29 11:10 14.61923 121.01927 13664 ft 434 kts 135°
2026-04-29 11:10 14.59859 121.04217 14040 ft 437 kts 135°
2026-04-29 11:10 14.57759 121.06501 14416 ft 441 kts 136°
2026-04-29 11:11 14.55623 121.08799 14793 ft 444 kts 136°
2026-04-29 11:11 14.53422 121.11150 15177 ft 446 kts 136°
2026-04-29 11:11 14.51215 121.13499 15560 ft 449 kts 136°
2026-04-29 11:11 14.49061 121.15785 15931 ft 451 kts 136°
2026-04-29 11:12 14.46838 121.18140 16312 ft 454 kts 136°
2026-04-29 11:12 14.44637 121.20469 16687 ft 456 kts 136°
2026-04-29 11:12 14.42412 121.22821 17063 ft 458 kts 136°
2026-04-29 11:12 14.40176 121.25183 17440 ft 461 kts 136°
2026-04-29 11:13 14.37895 121.27591 17822 ft 463 kts 136°
2026-04-29 11:13 14.35646 121.29965 18196 ft 466 kts 136°
2026-04-29 11:13 14.33363 121.32373 18574 ft 469 kts 136°
2026-04-29 11:13 14.31068 121.34791 18949 ft 477 kts 136°
2026-04-29 11:14 14.28734 121.37248 19325 ft 482 kts 136°
2026-04-29 11:14 14.26376 121.39730 19731 ft 486 kts 136°
2026-04-29 11:14 14.23996 121.42234 20133 ft 489 kts 136°
2026-04-29 11:14 14.21614 121.44737 20532 ft 494 kts 136°
2026-04-29 11:15 14.19200 121.47274 20934 ft 497 kts 136°
2026-04-29 11:15 14.16765 121.49830 21336 ft 500 kts 136°
2026-04-29 11:15 14.14301 121.52416 21740 ft 502 kts 136°
2026-04-29 11:15 14.11840 121.54997 22142 ft 505 kts 136°
2026-04-29 11:16 14.09382 121.57574 22542 ft 508 kts 136°
2026-04-29 11:16 14.06891 121.60192 22945 ft 511 kts 136°
2026-04-29 11:16 14.04385 121.62818 23347 ft 514 kts 136°
2026-04-29 11:16 14.01869 121.65447 23749 ft 516 kts 136°
2026-04-29 11:17 13.99338 121.68088 24151 ft 519 kts 136°
2026-04-29 11:17 13.96794 121.70737 24552 ft 522 kts 136°
2026-04-29 11:17 13.94199 121.73434 24958 ft 523 kts 136°
2026-04-29 11:17 13.91618 121.76117 25362 ft 522 kts 136°
2026-04-29 11:18 13.89081 121.78784 25763 ft 521 kts 136°
2026-04-29 11:18 13.86574 121.81497 26167 ft 521 kts 134°
2026-04-29 11:18 13.84239 121.84291 26566 ft 520 kts 131°
2026-04-29 11:18 13.81934 121.87205 26971 ft 520 kts 131°
2026-04-29 11:19 13.79646 121.90086 27372 ft 519 kts 131°
2026-04-29 11:19 13.77345 121.92951 27773 ft 519 kts 131°
2026-04-29 11:19 13.75038 121.95803 28173 ft 518 kts 131°
2026-04-29 11:19 13.72740 121.98631 28572 ft 517 kts 131°
2026-04-29 11:20 13.70427 122.01469 28974 ft 516 kts 131°
2026-04-29 11:20 13.68123 122.04291 29375 ft 515 kts 132°
2026-04-29 11:20 13.65819 122.07110 29776 ft 514 kts 132°
2026-04-29 11:20 13.63528 122.09918 30176 ft 513 kts 131°
2026-04-29 11:21 13.61181 122.12799 30587 ft 512 kts 131°
2026-04-29 11:21 13.58857 122.15648 30994 ft 511 kts 132°
2026-04-29 11:21 13.56539 122.18484 31400 ft 510 kts 132°
2026-04-29 11:21 13.54256 122.21276 31800 ft 510 kts 132°
2026-04-29 11:22 13.51948 122.24095 32206 ft 509 kts 132°
2026-04-29 11:22 13.49676 122.26870 32606 ft 508 kts 132°
2026-04-29 11:22 13.47399 122.29649 33007 ft 507 kts 132°
2026-04-29 11:22 13.45871 122.31514 33277 ft 506 kts 132°
2026-04-29 11:23 13.43593 122.34291 33679 ft 505 kts 132°
2026-04-29 11:23 13.41238 122.37164 34096 ft 505 kts 132°
2026-04-29 11:23 13.38877 122.40042 34596 ft 501 kts 132°
2026-04-29 11:23 13.36639 122.42769 35095 ft 496 kts 132°
2026-04-29 11:24 13.34422 122.45471 35595 ft 492 kts 132°
2026-04-29 11:24 13.32230 122.48144 36093 ft 487 kts 132°
2026-04-29 11:24 13.30060 122.50787 36592 ft 481 kts 132°
2026-04-29 11:24 13.27915 122.53400 37089 ft 476 kts 132°
2026-04-29 11:25 13.25770 122.56013 37594 ft 470 kts 132°
2026-04-29 11:25 13.23673 122.58567 38092 ft 463 kts 132°
2026-04-29 11:25 13.21619 122.61068 38586 ft 456 kts 132°
2026-04-29 11:25 13.19584 122.63546 39082 ft 449 kts 132°
2026-04-29 11:26 13.15640 122.68349 40067 ft 432 kts 132°
2026-04-29 11:26 13.13728 122.70677 40557 ft 422 kts 132°
2026-04-29 11:26 13.11855 122.72958 40866 ft 417 kts 132°
2026-04-29 11:27 13.08114 122.77503 40997 ft 418 kts 132°
2026-04-29 11:27 13.04265 122.82170 40999 ft 424 kts 132°
2026-04-29 11:28 13.00313 122.86952 40999 ft 431 kts 132°
2026-04-29 11:28 12.96353 122.91739 40999 ft 439 kts 132°
2026-04-29 11:29 12.92332 122.96597 40998 ft 447 kts 132°
2026-04-29 11:29 12.88266 123.01504 40998 ft 456 kts 132°
2026-04-29 11:30 12.84121 123.06502 40998 ft 465 kts 132°
2026-04-29 11:30 12.79888 123.11604 40998 ft 475 kts 132°
2026-04-29 11:31 12.76266 123.15966 40998 ft 483 kts 132°
2026-04-29 11:31 12.71875 123.21252 40998 ft 492 kts 132°
2026-04-29 11:32 12.67329 123.26720 40998 ft 502 kts 132°
2026-04-29 11:32 12.62784 123.32182 40998 ft 507 kts 132°
2026-04-29 11:33 12.58183 123.37706 40997 ft 512 kts 132°
2026-04-29 11:33 12.53565 123.43257 40997 ft 510 kts 132°
2026-04-29 11:34 12.48931 123.48803 40997 ft 509 kts 132°
2026-04-29 11:34 12.44294 123.54333 40997 ft 510 kts 133°
2026-04-29 11:35 12.39582 123.59962 40997 ft 510 kts 132°
2026-04-29 11:35 12.36943 123.62681 40998 ft 508 kts 143°
2026-04-29 11:35 12.34114 123.64813 40998 ft 506 kts 148°
2026-04-29 11:36 12.27976 123.68531 40997 ft 503 kts 154°
2026-04-29 11:36 12.21772 123.71863 40997 ft 502 kts 155°
2026-04-29 11:37 12.15560 123.75238 40997 ft 502 kts 154°
2026-04-29 11:37 12.09320 123.78654 40997 ft 503 kts 154°
2026-04-29 11:38 12.03160 123.82040 40997 ft 503 kts 154°
2026-04-29 11:38 11.96961 123.85449 40997 ft 503 kts 154°
2026-04-29 11:39 11.91808 123.88279 40997 ft 503 kts 154°
2026-04-29 11:39 11.84606 123.92230 40997 ft 503 kts 154°
2026-04-29 11:40 11.79285 123.95148 40997 ft 503 kts 154°
2026-04-29 11:40 11.72785 123.98709 40997 ft 503 kts 154°
2026-04-29 11:41 11.66573 124.02110 40997 ft 503 kts 154°
2026-04-29 11:41 11.60486 124.05438 40997 ft 503 kts 154°
2026-04-29 11:42 11.54317 124.08808 40997 ft 503 kts 154°
2026-04-29 11:42 11.48110 124.12195 40997 ft 503 kts 154°
2026-04-29 11:43 11.43276 124.14830 40997 ft 503 kts 154°
2026-04-29 11:43 11.36322 124.18614 40997 ft 503 kts 154°
2026-04-29 11:44 11.30107 124.21994 40997 ft 503 kts 154°
2026-04-29 11:44 11.23938 124.25334 40997 ft 502 kts 154°
2026-04-29 11:45 11.17763 124.28661 40997 ft 502 kts 155°
2026-04-29 11:45 11.11578 124.31999 40997 ft 503 kts 154°
2026-04-29 11:46 11.05390 124.35289 41002 ft 502 kts 156°
2026-04-29 11:46 10.99270 124.38693 40995 ft 503 kts 153°
2026-04-29 11:47 10.93004 124.42141 40997 ft 503 kts 155°
2026-04-29 11:47 10.86767 124.45456 40997 ft 502 kts 155°
2026-04-29 11:48 10.80585 124.48760 40997 ft 503 kts 154°
2026-04-29 11:48 10.74308 124.51992 40994 ft 502 kts 156°
2026-04-29 11:49 10.68187 124.55471 40998 ft 503 kts 152°
2026-04-29 11:49 10.62101 124.58960 40997 ft 503 kts 154°
2026-04-29 11:50 10.55941 124.62346 40997 ft 503 kts 154°
2026-04-29 11:50 10.49775 124.65695 40997 ft 503 kts 154°
2026-04-29 11:51 10.43471 124.69113 40997 ft 503 kts 154°
2026-04-29 11:51 10.37304 124.72450 40997 ft 503 kts 154°
2026-04-29 11:52 10.31094 124.75805 40997 ft 503 kts 154°
2026-04-29 11:52 10.25956 124.78578 40997 ft 503 kts 154°
2026-04-29 11:53 10.19742 124.81928 40997 ft 503 kts 154°
2026-04-29 11:53 10.13560 124.85256 40997 ft 503 kts 154°
2026-04-29 11:54 10.07348 124.88595 40997 ft 503 kts 154°
2026-04-29 11:54 10.01164 124.91917 40997 ft 502 kts 155°
2026-04-29 11:55 9.94979 124.95226 40997 ft 502 kts 155°
2026-04-29 11:55 9.88756 124.98542 40997 ft 502 kts 155°
2026-04-29 11:56 9.82584 125.01822 40997 ft 503 kts 154°
2026-04-29 11:56 9.76403 125.05167 40994 ft 502 kts 158°
2026-04-29 11:57 9.70236 125.08413 40720 ft 497 kts 153°
2026-04-29 11:57 9.67192 125.10085 40519 ft 494 kts 155°
2026-04-29 11:57 9.64163 125.11683 40319 ft 491 kts 154°
2026-04-29 11:58 9.61160 125.13327 40118 ft 489 kts 155°
2026-04-29 11:58 9.58092 125.14811 39917 ft 488 kts 156°
2026-04-29 11:58 9.55056 125.16427 39715 ft 489 kts 153°
2026-04-29 11:58 9.52089 125.18142 39515 ft 490 kts 153°
2026-04-29 11:59 9.49123 125.19829 39315 ft 490 kts 154°
2026-04-29 11:59 9.46139 125.21471 39116 ft 490 kts 154°
2026-04-29 11:59 9.43128 125.23096 38916 ft 489 kts 155°
2026-04-29 11:59 9.40121 125.24706 38716 ft 489 kts 155°
2026-04-29 12:00 9.37099 125.26317 38515 ft 489 kts 155°
2026-04-29 12:00 9.34050 125.27939 38313 ft 489 kts 155°
2026-04-29 12:00 9.31044 125.29535 38113 ft 489 kts 155°
2026-04-29 12:00 9.28031 125.31137 37913 ft 489 kts 155°
2026-04-29 12:01 9.25014 125.32739 37713 ft 489 kts 155°
2026-04-29 12:01 9.21996 125.34341 37513 ft 489 kts 155°
2026-04-29 12:01 9.18941 125.35959 37310 ft 489 kts 155°
2026-04-29 12:01 9.15925 125.37552 37110 ft 489 kts 155°
2026-04-29 12:02 9.12888 125.39154 36909 ft 489 kts 155°
2026-04-29 12:02 9.09862 125.40746 36708 ft 489 kts 155°
2026-04-29 12:02 9.06835 125.42336 36508 ft 489 kts 155°
2026-04-29 12:02 9.03687 125.43985 36300 ft 489 kts 155°
2026-04-29 12:03 9.00662 125.45576 36099 ft 489 kts 155°
2026-04-29 12:03 8.97646 125.47177 35896 ft 489 kts 157°
2026-04-29 12:03 8.94466 125.48353 35694 ft 487 kts 167°
2026-04-29 12:03 8.91159 125.49093 35494 ft 484 kts 173°
2026-04-29 12:04 8.87782 125.49553 35292 ft 483 kts 177°
2026-04-29 12:04 8.84457 125.49836 35093 ft 482 kts 179°
2026-04-29 12:04 8.81113 125.50082 34893 ft 482 kts 178°
2026-04-29 12:04 8.77763 125.50375 34692 ft 482 kts 178°
2026-04-29 12:05 8.74429 125.50688 34491 ft 478 kts 178°
2026-04-29 12:05 8.71113 125.51005 34242 ft 468 kts 178°
2026-04-29 12:05 8.67892 125.51312 33990 ft 461 kts 178°
2026-04-29 12:05 8.64703 125.51610 33738 ft 457 kts 178°
2026-04-29 12:06 8.61558 125.51901 33489 ft 456 kts 178°
2026-04-29 12:06 8.58383 125.52204 33239 ft 458 kts 177°
2026-04-29 12:06 8.55206 125.52561 32988 ft 459 kts 176°
2026-04-29 12:06 8.52032 125.52870 32734 ft 459 kts 181°
2026-04-29 12:07 8.48795 125.53018 32483 ft 459 kts 178°
2026-04-29 12:07 8.45625 125.53373 32234 ft 460 kts 176°
2026-04-29 12:07 8.42444 125.53772 31984 ft 462 kts 176°
2026-04-29 12:07 8.39234 125.54124 31732 ft 462 kts 177°
2026-04-29 12:08 8.36006 125.54435 31480 ft 462 kts 178°
2026-04-29 12:08 8.32784 125.54725 31229 ft 462 kts 178°
2026-04-29 12:08 8.29580 125.55005 30979 ft 463 kts 178°
2026-04-29 12:08 8.26329 125.55287 30726 ft 463 kts 178°
2026-04-29 12:09 8.23121 125.55563 30476 ft 464 kts 178°
2026-04-29 12:09 8.20944 125.55748 30307 ft 464 kts 178°
2026-04-29 12:09 8.17672 125.56025 30053 ft 465 kts 178°
2026-04-29 12:09 8.14436 125.56295 29801 ft 465 kts 178°
2026-04-29 12:10 8.11225 125.56562 29553 ft 466 kts 178°
2026-04-29 12:10 8.07978 125.56828 29301 ft 466 kts 178°
2026-04-29 12:10 8.04698 125.57094 29021 ft 467 kts 178°
2026-04-29 12:10 8.01473 125.57380 28721 ft 467 kts 178°
2026-04-29 12:11 7.98235 125.57601 28415 ft 467 kts 185°
2026-04-29 12:11 7.95009 125.57272 28116 ft 464 kts 192°
2026-04-29 12:11 7.91866 125.56591 27817 ft 459 kts 197°
2026-04-29 12:11 7.88815 125.55692 27517 ft 453 kts 200°
2026-04-29 12:12 7.85789 125.54697 27210 ft 442 kts 201°
2026-04-29 12:12 7.82869 125.53778 26906 ft 432 kts 200°
2026-04-29 12:12 7.80023 125.52923 26605 ft 422 kts 200°
2026-04-29 12:12 7.77204 125.52080 26300 ft 413 kts 200°
2026-04-29 12:13 7.74481 125.51260 25998 ft 404 kts 200°
2026-04-29 12:13 7.71771 125.50442 25693 ft 398 kts 200°
2026-04-29 12:13 7.69124 125.49671 25391 ft 393 kts 199°
2026-04-29 12:13 7.66498 125.48956 25091 ft 390 kts 198°
2026-04-29 12:14 7.63902 125.48173 24785 ft 388 kts 204°
2026-04-29 12:14 7.61374 125.47239 24488 ft 387 kts 200°
2026-04-29 12:14 7.58782 125.46533 24189 ft 386 kts 197°
2026-04-29 12:14 7.56182 125.45892 23883 ft 384 kts 198°
2026-04-29 12:15 7.53613 125.45206 23463 ft 375 kts 199°
2026-04-29 12:15 7.51139 125.44494 23041 ft 365 kts 200°
2026-04-29 12:15 7.48715 125.43768 22614 ft 352 kts 200°
2026-04-29 12:15 7.46419 125.43077 22186 ft 340 kts 200°
2026-04-29 12:16 7.44184 125.42404 21640 ft 330 kts 201°
2026-04-29 12:16 7.41997 125.41761 20963 ft 325 kts 200°
2026-04-29 12:16 7.39835 125.41137 20286 ft 320 kts 200°
2026-04-29 12:16 7.37709 125.40513 19608 ft 316 kts 199°
2026-04-29 12:17 7.35570 125.39984 18928 ft 314 kts 192°
2026-04-29 12:17 7.33379 125.40007 18294 ft 314 kts 179°
2026-04-29 12:17 7.31216 125.40216 17607 ft 312 kts 178°
2026-04-29 12:17 7.29068 125.40556 16929 ft 310 kts 174°
2026-04-29 12:18 7.26972 125.40994 16258 ft 308 kts 172°
2026-04-29 12:18 7.24858 125.41468 15529 ft 306 kts 171°
2026-04-29 12:18 7.22786 125.41957 14795 ft 301 kts 172°
2026-04-29 12:18 7.20798 125.42294 14045 ft 296 kts 180°
2026-04-29 12:19 7.18668 125.42540 13270 ft 297 kts 173°
2026-04-29 12:19 7.16635 125.43049 12421 ft 300 kts 169°
2026-04-29 12:19 7.14590 125.43580 11390 ft 307 kts 171°
2026-04-29 12:19 7.12507 125.44057 10354 ft 314 kts 171°
2026-04-29 12:20 7.10305 125.44543 9332 ft 325 kts 170°
2026-04-29 12:20 7.08232 125.45430 8802 ft 328 kts 148°
2026-04-29 12:20 7.06634 125.47032 8805 ft 310 kts 136°
2026-04-29 12:20 7.05178 125.48591 8346 ft 308 kts 134°
2026-04-29 12:21 7.04026 125.50464 7302 ft 328 kts 112°
2026-04-29 12:21 7.03675 125.52728 6754 ft 325 kts 90°
2026-04-29 12:21 7.04069 125.54927 6624 ft 307 kts 71°
2026-04-29 12:21 7.05122 125.56789 6118 ft 299 kts 50°
2026-04-29 12:22 7.06417 125.58212 6626 ft 255 kts 46°
2026-04-29 12:22 7.07188 125.59105 6653 ft 257 kts 48°
2026-04-29 12:22 7.08948 125.61005 6179 ft 287 kts 42°
2026-04-29 12:22 7.10345 125.62426 5628 ft 291 kts 42°
2026-04-29 12:23 7.11829 125.63831 5000 ft 293 kts 38°
2026-04-29 12:23 7.13495 125.65004 4372 ft 293 kts 28°
2026-04-29 12:23 7.14674 125.65688 3943 ft 295 kts 34°
2026-04-29 12:23 7.16060 125.67292 3570 ft 286 kts 61°
2026-04-29 12:24 7.16522 125.69189 3447 ft 272 kts 88°
2026-04-29 12:24 7.16371 125.71067 3429 ft 269 kts 92°
2026-04-29 12:24 7.16344 125.72314 3383 ft 268 kts 87°
2026-04-29 12:25 7.19243 125.77743 3294 ft 268 kts 53°
2026-04-29 12:25 7.22320 125.79666 3238 ft 267 kts
2026-04-29 12:26 7.24145 125.79399 3096 ft 268 kts 341°
2026-04-29 12:26 7.25784 125.78514 3036 ft 266 kts 326°
2026-04-29 12:26 7.27288 125.77360 3016 ft 266 kts 323°
2026-04-29 12:26 7.28754 125.76221 2990 ft 267 kts 322°
2026-04-29 12:27 7.30113 125.74974 2958 ft 269 kts 307°
2026-04-29 12:27 7.30886 125.73261 2986 ft 267 kts 287°
2026-04-29 12:27 7.31178 125.71437 2890 ft 268 kts 276°
2026-04-29 12:27 7.31363 125.69557 2832 ft 266 kts 276°
2026-04-29 12:28 7.31540 125.67693 2733 ft 269 kts 275°
2026-04-29 12:28 7.31718 125.65807 2554 ft 260 kts 275°
2026-04-29 12:28 7.31884 125.64061 2366 ft 242 kts 275°
2026-04-29 12:28 7.31935 125.63516 2304 ft 236 kts 275°
2026-04-29 12:29 7.32131 125.61438 2253 ft 204 kts 275°
2026-04-29 12:29 7.32175 125.60966 2260 ft 194 kts 275°
2026-04-29 12:31 7.28957 125.49105 2091 ft 190 kts 221°
2026-04-29 12:31 7.27964 125.48224 2092 ft 190 kts 221°
2026-04-29 12:32 7.26973 125.47342 2092 ft 190 kts 221°
2026-04-29 12:32 7.25975 125.46454 2092 ft 190 kts 221°
2026-04-29 12:32 7.24988 125.45576 2092 ft 190 kts 221°
2026-04-29 12:32 7.23989 125.44688 2092 ft 190 kts 221°
2026-04-29 12:33 7.22997 125.43805 2092 ft 190 kts 221°
2026-04-29 12:33 7.21988 125.42921 2090 ft 190 kts 218°
2026-04-29 12:33 7.20795 125.42420 2091 ft 191 kts 188°
2026-04-29 12:33 7.19457 125.42498 2090 ft 191 kts 175°
2026-04-29 12:34 7.18138 125.42694 2089 ft 191 kts 171°
2026-04-29 12:34 7.16843 125.42960 2092 ft 190 kts 168°
2026-04-29 12:34 7.15543 125.43255 2100 ft 190 kts 167°
2026-04-29 12:34 7.14283 125.43535 2089 ft 177 kts 168°
2026-04-29 12:35 7.13502 125.43704 2088 ft 173 kts 168°
2026-04-29 12:35 7.12291 125.43963 2086 ft 170 kts 168°
2026-04-29 12:35 7.11139 125.44209 2088 ft 169 kts 168°
2026-04-29 12:35 7.09990 125.44453 2094 ft 169 kts 168°
2026-04-29 12:36 7.08832 125.44698 2092 ft 170 kts 168°
2026-04-29 12:36 7.07689 125.44968 2089 ft 169 kts 161°
2026-04-29 12:36 7.06739 125.45666 2093 ft 170 kts 133°
2026-04-29 12:36 7.06065 125.46649 2093 ft 170 kts 125°
2026-04-29 12:37 7.05454 125.47667 2087 ft 166 kts 121°
2026-04-29 12:37 7.04924 125.48649 2089 ft 156 kts 118°
2026-04-29 12:37 7.04420 125.49605 2083 ft 153 kts 118°
2026-04-29 12:37 7.03913 125.50557 2083 ft 152 kts 118°
2026-04-29 12:38 7.03409 125.51496 2096 ft 152 kts 118°
2026-04-29 12:38 7.03022 125.52483 2057 ft 154 kts 98°
2026-04-29 12:38 7.03256 125.53518 2013 ft 153 kts 69°
2026-04-29 12:38 7.03822 125.54421 2008 ft 153 kts 59°
2026-04-29 12:39 7.04486 125.55279 1937 ft 153 kts 51°
2026-04-29 12:39 7.05183 125.56045 1793 ft 152 kts 49°
2026-04-29 12:39 7.05913 125.56891 1625 ft 151 kts 50°
2026-04-29 12:39 7.06604 125.57688 1458 ft 150 kts 49°
2026-04-29 12:40 7.07298 125.58467 1263 ft 148 kts 48°
2026-04-29 12:40 7.07992 125.59258 1116 ft 149 kts 49°
2026-04-29 12:40 7.08651 125.60042 947 ft 151 kts 50°
2026-04-29 12:40 7.09357 125.60858 799 ft 151 kts 49°
2026-04-29 12:41 7.10048 125.61654 607 ft 150 kts 49°
2026-04-29 12:41 7.10726 125.62444 395 ft 148 kts 49°
2026-04-29 12:41 7.11390 125.63212 215 ft 147 kts 49°
2026-04-29 12:41 7.12060 125.63995 112 ft 131 kts 49°
2026-04-29 12:42 7.12492 125.64490 110 ft 93 kts 49°
2026-04-29 12:42 7.12588 125.64600 110 ft 83 kts 50°
2026-04-29 12:42 7.12801 125.64864 110 ft 7 kts 50°
2026-04-29 12:42 7.12812 125.64876 109 ft 2 kts 47°
2026-04-29 12:43 7.12813 125.64877 109 ft 0 kts 46°
2026-04-29 12:43 7.12824 125.64885 109 ft 4 kts 29°
2026-04-29 12:43 7.12865 125.64899 109 ft 7 kts 357°
2026-04-29 12:43 7.12925 125.64873 109 ft 12 kts 323°
2026-04-29 12:44 7.12997 125.64816 109 ft 14 kts 309°
2026-04-29 12:44 7.12980 125.64730 109 ft 15 kts 234°
2026-04-29 12:44 7.12916 125.64653 109 ft 11 kts 229°
2026-04-29 12:44 7.12894 125.64607 109 ft 8 kts 284°
2026-04-29 12:45 7.12914 125.64577 109 ft 6 kts 316°